Location: Bathsheba
(13.2167°N, 59.5167°W)
Time: 23:03:57
(UTC+00:00)

ATLAS 2AS CENTAUR R/B - Pass Details

Date: 18 September 2020
Orbit: 939 x 1273 km, 63.7° (Epoch: 19 October)

Event Time Altitude Azimuth Distance (km) Brightness Sun altitude
Rises 22:36:04 0° 174° (S) 4,027 5.6 -10.4°
Reaches altitude 10° 22:39:17 10° 161° (SSE) 3,116 4.9 -11.2°
Maximum altitude 22:45:14 25° 109° (ESE) 2,243 3.8 -12.6°
Drops below altitude 10° 22:51:22 10° 57° (ENE) 3,244 4.8 -14.1°
Enters shadow 22:52:40 - 52° (NE) 3,603 5.0 -14.4°
